owner,sensor,date,latitude,longitude,air_temperature,qcFlag 
DISL,ioos:station:DISL:MHPA:1,2009-01-01T06:30:00Z,30.6671,-87.9365,5.339,1111122 
DISL,ioos:station:DISL:MHPA:1,2009-01-01T07:00:00Z,30.6671,-87.9365,4.735,1111122 
DISL,ioos:station:DISL:MHPA:1,2009-01-01T07:30:00Z,30.6671,-87.9365,4.248,1111122 
DISL,ioos:station:DISL:MHPA:1,2009-01-01T08:00:00Z,30.6671,-87.9365,3.789,1111122 
DISL,ioos:station:DISL:MHPA:1,2009-01-01T08:30:00Z,30.6671,-87.9365,3.761,1111122 
DISL,ioos:station:DISL:MHPA:1,2009-01-01T09:00:00Z,30.6671,-87.9365,3.379,1111122 
DISL,ioos:station:DISL:MHPA:1,2009-01-01T09:30:00Z,30.6671,-87.9365,3.122,1111122 
DISL,ioos:station:DISL:MHPA:1,2009-01-01T10:00:00Z,30.6671,-87.9365,2.951,1111122 
DISL,ioos:station:DISL:MHPA:1,2009-01-01T10:30:00Z,30.6671,-87.9365,2.523,1111122 
DISL,ioos:station:DISL:MHPA:1,2009-01-01T11:00:00Z,30.6671,-87.9365,2.2,1111122 
DISL,ioos:station:DISL:MHPA:1,2009-01-01T11:30:00Z,30.6671,-87.9365,2.114,1111122 
DISL,ioos:station:DISL:MHPA:1,2009-01-01T12:00:00Z,30.6671,-87.9365,2.209,1111122 
DISL,ioos:station:DISL:MHPA:1,2009-01-01T12:30:00Z,30.6671,-87.9365,2.58,1111122 
DISL,ioos:station:DISL:MHPA:1,2009-01-01T13:00:00Z,30.6671,-87.9365,2.77,1111122 
DISL,ioos:station:DISL:MHPA:1,2009-01-01T13:30:00Z,30.6671,-87.9365,2.941,1111122 
DISL,ioos:station:DISL:MHPA:1,2009-01-01T14:00:00Z,30.6671,-87.9365,3.579,1111122 
DISL,ioos:station:DISL:MHPA:1,2009-01-01T14:30:00Z,30.6671,-87.9365,4.819,1111122 
DISL,ioos:station:DISL:MHPA:1,2009-01-01T15:00:00Z,30.6671,-87.9365,6.269,1111122 
DISL,ioos:station:DISL:MHPA:1,2009-01-01T15:30:00Z,30.6671,-87.9365,7.38,1111122 
DISL,ioos:station:DISL:MHPA:1,2009-01-01T16:00:00Z,30.6671,-87.9365,8.13,1111122 
DISL,ioos:station:DISL:MHPA:1,2009-01-01T16:30:00Z,30.6671,-87.9365,9.21,1111122 
DISL,ioos:station:DISL:MHPA:1,2009-01-01T17:00:00Z,30.6671,-87.9365,10.64,1111122 
DISL,ioos:station:DISL:MHPA:1,2009-01-01T17:30:00Z,30.6671,-87.9365,11.63,1111122 
DISL,ioos:station:DISL:MHPA:1,2009-01-01T18:00:00Z,30.6671,-87.9365,12.72,1111122 
DISL,ioos:station:DISL:MHPA:1,2009-01-01T18:30:00Z,30.6671,-87.9365,13.8,1111122 
DISL,ioos:station:DISL:MHPA:1,2009-01-01T19:00:00Z,30.6671,-87.9365,14.42,1111122 
DISL,ioos:station:DISL:MHPA:1,2009-01-01T19:30:00Z,30.6671,-87.9365,14.83,1111122 
DISL,ioos:station:DISL:MHPA:1,2009-01-01T20:00:00Z,30.6671,-87.9365,15.31,1111122 
DISL,ioos:station:DISL:MHPA:1,2009-01-01T20:30:00Z,30.6671,-87.9365,15.39,1111122 
DISL,ioos:station:DISL:MHPA:1,2009-01-01T21:00:00Z,30.6671,-87.9365,15.43,1111122 
DISL,ioos:station:DISL:MHPA:1,2009-01-01T21:30:00Z,30.6671,-87.9365,15.52,1111122 
DISL,ioos:station:DISL:MHPA:1,2009-01-01T22:00:00Z,30.6671,-87.9365,15.58,1111122 
DISL,ioos:station:DISL:MHPA:1,2009-01-01T22:30:00Z,30.6671,-87.9365,14.98,1111122 
DISL,ioos:station:DISL:MHPA:1,2009-01-01T23:00:00Z,30.6671,-87.9365,14.3,1111122 
DISL,ioos:station:DISL:MHPA:1,2009-01-01T23:30:00Z,30.6671,-87.9365,13.82,1111122 
DISL,ioos:station:DISL:MHPA:1,2009-01-02T00:00:00Z,30.6671,-87.9365,13.26,1111122 
DISL,ioos:station:DISL:MHPA:1,2009-01-02T00:30:00Z,30.6671,-87.9365,13.07,1111122 
DISL,ioos:station:DISL:MHPA:1,2009-01-02T01:00:00Z,30.6671,-87.9365,12.99,1111122 
DISL,ioos:station:DISL:MHPA:1,2009-01-02T01:30:00Z,30.6671,-87.9365,12.73,1111122 
DISL,ioos:station:DISL:MHPA:1,2009-01-02T02:00:00Z,30.6671,-87.9365,12.59,1111122 
DISL,ioos:station:DISL:MHPA:1,2009-01-02T02:30:00Z,30.6671,-87.9365,12.44,1111122 
DISL,ioos:station:DISL:MHPA:1,2009-01-02T03:00:00Z,30.6671,-87.9365,12.35,1111122 
DISL,ioos:station:DISL:MHPA:1,2009-01-02T03:30:00Z,30.6671,-87.9365,12.27,1111122 
DISL,ioos:station:DISL:MHPA:1,2009-01-02T04:00:00Z,30.6671,-87.9365,12.18,1111122 
DISL,ioos:station:DISL:MHPA:1,2009-01-02T04:30:00Z,30.6671,-87.9365,12.23,1111122 
DISL,ioos:station:DISL:MHPA:1,2009-01-02T05:00:00Z,30.6671,-87.9365,12.56,1111122 
DISL,ioos:station:DISL:MHPA:1,2009-01-02T05:30:00Z,30.6671,-87.9365,12.98,1111122 
DISL,ioos:station:DISL:MHPA:1,2009-01-02T06:00:00Z,30.6671,-87.9365,13.24,1111122 
DISL,ioos:station:DISL:MHPA:1,2009-01-02T06:30:00Z,30.6671,-87.9365,13.22,1111122 
DISL,ioos:station:DISL:MHPA:1,2009-01-02T07:00:00Z,30.6671,-87.9365,13.31,1111122 
DISL,ioos:station:DISL:MHPA:1,2009-01-02T07:30:00Z,30.6671,-87.9365,13.29,1111122 
DISL,ioos:station:DISL:MHPA:1,2009-01-02T08:00:00Z,30.6671,-87.9365,13.24,1111122 
DISL,ioos:station:DISL:MHPA:1,2009-01-02T08:30:00Z,30.6671,-87.9365,13.53,1111122 
DISL,ioos:station:DISL:MHPA:1,2009-01-02T09:00:00Z,30.6671,-87.9365,13.12,1111122 
DISL,ioos:station:DISL:MHPA:1,2009-01-02T09:30:00Z,30.6671,-87.9365,12.97,1111122 
DISL,ioos:station:DISL:MHPA:1,2009-01-02T10:00:00Z,30.6671,-87.9365,12.96,1111122 
DISL,ioos:station:DISL:MHPA:1,2009-01-02T10:30:00Z,30.6671,-87.9365,12.79,1111122 
DISL,ioos:station:DISL:MHPA:1,2009-01-02T11:00:00Z,30.6671,-87.9365,12.72,1111122 
DISL,ioos:station:DISL:MHPA:1,2009-01-02T11:30:00Z,30.6671,-87.9365,12.79,1111122 
DISL,ioos:station:DISL:MHPA:1,2009-01-02T12:00:00Z,30.6671,-87.9365,13.06,1111122 
DISL,ioos:station:DISL:MHPA:1,2009-01-02T12:30:00Z,30.6671,-87.9365,12.74,1111122 
DISL,ioos:station:DISL:MHPA:1,2009-01-02T13:00:00Z,30.6671,-87.9365,13.17,1111122 
DISL,ioos:station:DISL:MHPA:1,2009-01-02T13:30:00Z,30.6671,-87.9365,13.51,1111122 
DISL,ioos:station:DISL:MHPA:1,2009-01-02T14:00:00Z,30.6671,-87.9365,14.54,1111122 
DISL,ioos:station:DISL:MHPA:1,2009-01-02T14:30:00Z,30.6671,-87.9365,15.35,1111122 
DISL,ioos:station:DISL:MHPA:1,2009-01-02T15:00:00Z,30.6671,-87.9365,17.54,1111122 
DISL,ioos:station:DISL:MHPA:1,2009-01-02T15:30:00Z,30.6671,-87.9365,18.35,1111122 
DISL,ioos:station:DISL:MHPA:1,2009-01-02T16:00:00Z,30.6671,-87.9365,17.12,1111122 
DISL,ioos:station:DISL:MHPA:1,2009-01-02T16:30:00Z,30.6671,-87.9365,16.76,1111122 
DISL,ioos:station:DISL:MHPA:1,2009-01-02T17:00:00Z,30.6671,-87.9365,16.71,1111122 
DISL,ioos:station:DISL:MHPA:1,2009-01-02T17:30:00Z,30.6671,-87.9365,17.37,1111122 
DISL,ioos:station:DISL:MHPA:1,2009-01-02T18:00:00Z,30.6671,-87.9365,17.39,1111122 
DISL,ioos:station:DISL:MHPA:1,2009-01-02T18:30:00Z,30.6671,-87.9365,17.46,1111122 
DISL,ioos:station:DISL:MHPA:1,2009-01-02T19:00:00Z,30.6671,-87.9365,18.55,1111122 
DISL,ioos:station:DISL:MHPA:1,2009-01-02T19:30:00Z,30.6671,-87.9365,18.38,1111122 
DISL,ioos:station:DISL:MHPA:1,2009-01-02T20:00:00Z,30.6671,-87.9365,18.02,1111122 
DISL,ioos:station:DISL:MHPA:1,2009-01-02T20:30:00Z,30.6671,-87.9365,18.11,1111122 
DISL,ioos:station:DISL:MHPA:1,2009-01-02T21:00:00Z,30.6671,-87.9365,18.29,1111122 
DISL,ioos:station:DISL:MHPA:1,2009-01-02T21:30:00Z,30.6671,-87.9365,18.05,1111122 
DISL,ioos:station:DISL:MHPA:1,2009-01-02T22:00:00Z,30.6671,-87.9365,18.09,1111122 
DISL,ioos:station:DISL:MHPA:1,2009-01-02T22:30:00Z,30.6671,-87.9365,17.83,1111122 
DISL,ioos:station:DISL:MHPA:1,2009-01-02T23:00:00Z,30.6671,-87.9365,17.19,1111122 
DISL,ioos:station:DISL:MHPA:1,2009-01-02T23:30:00Z,30.6671,-87.9365,17.79,1111122 
DISL,ioos:station:DISL:MHPA:1,2009-01-03T00:00:00Z,30.6671,-87.9365,17.55,1111122 
DISL,ioos:station:DISL:MHPA:1,2009-01-03T00:30:00Z,30.6671,-87.9365,17.65,1111122 
DISL,ioos:station:DISL:MHPA:1,2009-01-03T01:00:00Z,30.6671,-87.9365,17.61,1111122 
DISL,ioos:station:DISL:MHPA:1,2009-01-03T01:30:00Z,30.6671,-87.9365,17.46,1111122 
DISL,ioos:station:DISL:MHPA:1,2009-01-03T02:00:00Z,30.6671,-87.9365,16.85,1111122 
DISL,ioos:station:DISL:MHPA:1,2009-01-03T02:30:00Z,30.6671,-87.9365,17.07,1111122 
DISL,ioos:station:DISL:MHPA:1,2009-01-03T03:00:00Z,30.6671,-87.9365,17.22,1111122 
DISL,ioos:station:DISL:MHPA:1,2009-01-03T03:30:00Z,30.6671,-87.9365,16.78,1111122 
DISL,ioos:station:DISL:MHPA:1,2009-01-03T04:00:00Z,30.6671,-87.9365,16.12,1111122 
DISL,ioos:station:DISL:MHPA:1,2009-01-03T04:30:00Z,30.6671,-87.9365,16.03,1111122 
DISL,ioos:station:DISL:MHPA:1,2009-01-03T05:00:00Z,30.6671,-87.9365,16.45,1111122 
DISL,ioos:station:DISL:MHPA:1,2009-01-03T05:30:00Z,30.6671,-87.9365,16.62,1111122 
DISL,ioos:station:DISL:MHPA:1,2009-01-03T06:00:00Z,30.6671,-87.9365,16.54,1111122 
DISL,ioos:station:DISL:MHPA:1,2009-01-03T06:30:00Z,30.6671,-87.9365,15.76,1111122 
DISL,ioos:station:DISL:MHPA:1,2009-01-03T07:00:00Z,30.6671,-87.9365,15.59,1111122 
DISL,ioos:station:DISL:MHPA:1,2009-01-03T07:30:00Z,30.6671,-87.9365,16.09,1111122 
DISL,ioos:station:DISL:MHPA:1,2009-01-03T08:00:00Z,30.6671,-87.9365,15.58,1111122 
DISL,ioos:station:DISL:MHPA:1,2009-01-03T08:30:00Z,30.6671,-87.9365,15.25,1111122 
DISL,ioos:station:DISL:MHPA:1,2009-01-03T09:00:00Z,30.6671,-87.9365,15.25,1111122 
DISL,ioos:station:DISL:MHPA:1,2009-01-03T09:30:00Z,30.6671,-87.9365,15.17,1111122 
DISL,ioos:station:DISL:MHPA:1,2009-01-03T10:00:00Z,30.6671,-87.9365,15.85,1111122 
DISL,ioos:station:DISL:MHPA:1,2009-01-03T10:30:00Z,30.6671,-87.9365,16.56,1111122 
DISL,ioos:station:DISL:MHPA:1,2009-01-03T11:00:00Z,30.6671,-87.9365,16.2,1111122 
DISL,ioos:station:DISL:MHPA:1,2009-01-03T11:30:00Z,30.6671,-87.9365,16.04,1111122 
DISL,ioos:station:DISL:MHPA:1,2009-01-03T12:00:00Z,30.6671,-87.9365,16.25,1111122 
DISL,ioos:station:DISL:MHPA:1,2009-01-03T12:30:00Z,30.6671,-87.9365,16.71,1111122 
DISL,ioos:station:DISL:MHPA:1,2009-01-03T13:00:00Z,30.6671,-87.9365,17.06,1111122 
DISL,ioos:station:DISL:MHPA:1,2009-01-03T13:30:00Z,30.6671,-87.9365,17.37,1111122 
DISL,ioos:station:DISL:MHPA:1,2009-01-03T14:00:00Z,30.6671,-87.9365,17.63,1111122 
DISL,ioos:station:DISL:MHPA:1,2009-01-03T14:30:00Z,30.6671,-87.9365,17.97,1111122 
DISL,ioos:station:DISL:MHPA:1,2009-01-03T15:00:00Z,30.6671,-87.9365,18.89,1111122 
DISL,ioos:station:DISL:MHPA:1,2009-01-03T15:30:00Z,30.6671,-87.9365,19.0,1111122 
DISL,ioos:station:DISL:MHPA:1,2009-01-03T16:00:00Z,30.6671,-87.9365,19.47,1111122 
DISL,ioos:station:DISL:MHPA:1,2009-01-03T16:30:00Z,30.6671,-87.9365,19.35,1111122 
DISL,ioos:station:DISL:MHPA:1,2009-01-03T17:00:00Z,30.6671,-87.9365,17.06,1111122 
DISL,ioos:station:DISL:MHPA:1,2009-01-03T17:30:00Z,30.6671,-87.9365,17.97,1111122 
DISL,ioos:station:DISL:MHPA:1,2009-01-03T18:00:00Z,30.6671,-87.9365,18.57,1111122 
DISL,ioos:station:DISL:MHPA:1,2009-01-03T18:30:00Z,30.6671,-87.9365,18.96,1111122 
DISL,ioos:station:DISL:MHPA:1,2009-01-03T19:00:00Z,30.6671,-87.9365,18.55,1111122 
DISL,ioos:station:DISL:MHPA:1,2009-01-03T19:30:00Z,30.6671,-87.9365,18.93,1111122 
DISL,ioos:station:DISL:MHPA:1,2009-01-03T20:00:00Z,30.6671,-87.9365,19.17,1111122 
DISL,ioos:station:DISL:MHPA:1,2009-01-03T20:30:00Z,30.6671,-87.9365,19.1,1111122 
DISL,ioos:station:DISL:MHPA:1,2009-01-03T21:00:00Z,30.6671,-87.9365,19.2,1111122 
DISL,ioos:station:DISL:MHPA:1,2009-01-03T21:30:00Z,30.6671,-87.9365,19.19,1111122 
DISL,ioos:station:DISL:MHPA:1,2009-01-03T22:00:00Z,30.6671,-87.9365,19.5,1111122 
DISL,ioos:station:DISL:MHPA:1,2009-01-03T22:30:00Z,30.6671,-87.9365,19.44,1111122 
DISL,ioos:station:DISL:MHPA:1,2009-01-03T23:00:00Z,30.6671,-87.9365,19.35,1111122 
DISL,ioos:station:DISL:MHPA:1,2009-01-03T23:30:00Z,30.6671,-87.9365,20.08,1111122 
DISL,ioos:station:DISL:MHPA:1,2009-01-04T00:00:00Z,30.6671,-87.9365,18.56,1111122 
DISL,ioos:station:DISL:MHPA:1,2009-01-04T00:30:00Z,30.6671,-87.9365,17.14,1111122 
DISL,ioos:station:DISL:MHPA:1,2009-01-04T01:00:00Z,30.6671,-87.9365,16.94,1111122 
DISL,ioos:station:DISL:MHPA:1,2009-01-04T01:30:00Z,30.6671,-87.9365,16.8,1111122 
DISL,ioos:station:DISL:MHPA:1,2009-01-04T02:00:00Z,30.6671,-87.9365,16.85,1111122 
DISL,ioos:station:DISL:MHPA:1,2009-01-04T02:30:00Z,30.6671,-87.9365,16.42,1111122 
DISL,ioos:station:DISL:MHPA:1,2009-01-04T03:00:00Z,30.6671,-87.9365,16.38,1111122 
DISL,ioos:station:DISL:MHPA:1,2009-01-04T03:30:00Z,30.6671,-87.9365,16.27,1111122 
DISL,ioos:station:DISL:MHPA:1,2009-01-04T04:00:00Z,30.6671,-87.9365,16.33,1111122 
DISL,ioos:station:DISL:MHPA:1,2009-01-04T04:30:00Z,30.6671,-87.9365,16.43,1111122 
DISL,ioos:station:DISL:MHPA:1,2009-01-04T05:00:00Z,30.6671,-87.9365,16.37,1111122 
DISL,ioos:station:DISL:MHPA:1,2009-01-04T05:30:00Z,30.6671,-87.9365,16.26,1111122 
DISL,ioos:station:DISL:MHPA:1,2009-01-04T06:00:00Z,30.6671,-87.9365,16.09,1111122 
DISL,ioos:station:DISL:MHPA:1,2009-01-04T06:30:00Z,30.6671,-87.9365,15.78,1111122 
DISL,ioos:station:DISL:MHPA:1,2009-01-04T07:00:00Z,30.6671,-87.9365,16.8,1111122 
DISL,ioos:station:DISL:MHPA:1,2009-01-04T07:30:00Z,30.6671,-87.9365,17.01,1111122 
DISL,ioos:station:DISL:MHPA:1,2009-01-04T08:00:00Z,30.6671,-87.9365,15.93,1111122 
DISL,ioos:station:DISL:MHPA:1,2009-01-04T08:30:00Z,30.6671,-87.9365,15.74,1111122 
DISL,ioos:station:DISL:MHPA:1,2009-01-04T09:00:00Z,30.6671,-87.9365,15.6,1111122 
DISL,ioos:station:DISL:MHPA:1,2009-01-04T09:30:00Z,30.6671,-87.9365,15.37,1111122 
DISL,ioos:station:DISL:MHPA:1,2009-01-04T10:00:00Z,30.6671,-87.9365,15.47,1111122 
DISL,ioos:station:DISL:MHPA:1,2009-01-04T10:30:00Z,30.6671,-87.9365,15.24,1111122 
DISL,ioos:station:DISL:MHPA:1,2009-01-04T11:00:00Z,30.6671,-87.9365,15.42,1111122 
DISL,ioos:station:DISL:MHPA:1,2009-01-04T11:30:00Z,30.6671,-87.9365,15.49,1111122 
DISL,ioos:station:DISL:MHPA:1,2009-01-04T12:00:00Z,30.6671,-87.9365,15.34,1111122 
DISL,ioos:station:DISL:MHPA:1,2009-01-04T12:30:00Z,30.6671,-87.9365,15.41,1111122 
DISL,ioos:station:DISL:MHPA:1,2009-01-04T13:00:00Z,30.6671,-87.9365,15.65,1111122 
DISL,ioos:station:DISL:MHPA:1,2009-01-04T13:30:00Z,30.6671,-87.9365,15.78,1111122 
DISL,ioos:station:DISL:MHPA:1,2009-01-04T14:00:00Z,30.6671,-87.9365,16.89,1111122 
DISL,ioos:station:DISL:MHPA:1,2009-01-04T14:30:00Z,30.6671,-87.9365,16.84,1111122 
DISL,ioos:station:DISL:MHPA:1,2009-01-04T15:00:00Z,30.6671,-87.9365,17.45,1111122 
DISL,ioos:station:DISL:MHPA:1,2009-01-04T15:30:00Z,30.6671,-87.9365,17.05,1111122 
DISL,ioos:station:DISL:MHPA:1,2009-01-04T16:00:00Z,30.6671,-87.9365,17.38,1111122 
DISL,ioos:station:DISL:MHPA:1,2009-01-04T16:30:00Z,30.6671,-87.9365,17.74,1111122 
DISL,ioos:station:DISL:MHPA:1,2009-01-04T17:00:00Z,30.6671,-87.9365,17.71,1111122 
DISL,ioos:station:DISL:MHPA:1,2009-01-04T17:30:00Z,30.6671,-87.9365,17.81,1111122 
DISL,ioos:station:DISL:MHPA:1,2009-01-04T18:00:00Z,30.6671,-87.9365,17.71,1111122 
DISL,ioos:station:DISL:MHPA:1,2009-01-04T18:30:00Z,30.6671,-87.9365,17.76,1111122 
DISL,ioos:station:DISL:MHPA:1,2009-01-04T19:00:00Z,30.6671,-87.9365,17.72,1111122 
DISL,ioos:station:DISL:MHPA:1,2009-01-04T19:30:00Z,30.6671,-87.9365,18.0,1111122 
DISL,ioos:station:DISL:MHPA:1,2009-01-04T20:00:00Z,30.6671,-87.9365,19.16,1111122 
DISL,ioos:station:DISL:MHPA:1,2009-01-04T20:30:00Z,30.6671,-87.9365,19.36,1111122 
DISL,ioos:station:DISL:MHPA:1,2009-01-04T21:00:00Z,30.6671,-87.9365,19.15,1111122 
DISL,ioos:station:DISL:MHPA:1,2009-01-04T21:30:00Z,30.6671,-87.9365,19.07,1111122 
DISL,ioos:station:DISL:MHPA:1,2009-01-04T22:00:00Z,30.6671,-87.9365,19.0,1111122 
DISL,ioos:station:DISL:MHPA:1,2009-01-04T22:30:00Z,30.6671,-87.9365,18.63,1111122 
DISL,ioos:station:DISL:MHPA:1,2009-01-04T23:00:00Z,30.6671,-87.9365,18.62,1111122 
DISL,ioos:station:DISL:MHPA:1,2009-01-04T23:30:00Z,30.6671,-87.9365,18.3,1111122 
DISL,ioos:station:DISL:MHPA:1,2009-01-05T00:00:00Z,30.6671,-87.9365,17.94,1111122 
DISL,ioos:station:DISL:MHPA:1,2009-01-05T00:30:00Z,30.6671,-87.9365,17.66,1111122 
DISL,ioos:station:DISL:MHPA:1,2009-01-05T01:00:00Z,30.6671,-87.9365,17.73,1111122 
DISL,ioos:station:DISL:MHPA:1,2009-01-05T01:30:00Z,30.6671,-87.9365,17.9,1111122 
DISL,ioos:station:DISL:MHPA:1,2009-01-05T02:00:00Z,30.6671,-87.9365,18.03,1111122 
DISL,ioos:station:DISL:MHPA:1,2009-01-05T02:30:00Z,30.6671,-87.9365,17.12,1111122 
DISL,ioos:station:DISL:MHPA:1,2009-01-05T03:00:00Z,30.6671,-87.9365,17.77,1111122 
DISL,ioos:station:DISL:MHPA:1,2009-01-05T03:30:00Z,30.6671,-87.9365,18.21,1111122 
DISL,ioos:station:DISL:MHPA:1,2009-01-05T04:00:00Z,30.6671,-87.9365,17.66,1111122 
DISL,ioos:station:DISL:MHPA:1,2009-01-05T04:30:00Z,30.6671,-87.9365,17.64,1111122 
DISL,ioos:station:DISL:MHPA:1,2009-01-05T05:00:00Z,30.6671,-87.9365,17.76,1111122 
DISL,ioos:station:DISL:MHPA:1,2009-01-05T05:30:00Z,30.6671,-87.9365,17.74,1111122 
DISL,ioos:station:DISL:MHPA:1,2009-01-05T06:00:00Z,30.6671,-87.9365,17.83,1111122 
DISL,ioos:station:DISL:MHPA:1,2009-01-05T06:30:00Z,30.6671,-87.9365,17.84,1111122 
DISL,ioos:station:DISL:MHPA:1,2009-01-05T07:00:00Z,30.6671,-87.9365,16.36,1111122 
DISL,ioos:station:DISL:MHPA:1,2009-01-05T07:30:00Z,30.6671,-87.9365,15.87,1111122 
DISL,ioos:station:DISL:MHPA:1,2009-01-05T08:00:00Z,30.6671,-87.9365,16.23,1111122 
DISL,ioos:station:DISL:MHPA:1,2009-01-05T08:30:00Z,30.6671,-87.9365,16.55,1111122 
DISL,ioos:station:DISL:MHPA:1,2009-01-05T09:00:00Z,30.6671,-87.9365,16.59,1111122 
DISL,ioos:station:DISL:MHPA:1,2009-01-05T09:30:00Z,30.6671,-87.9365,16.5,1111122 
DISL,ioos:station:DISL:MHPA:1,2009-01-05T10:00:00Z,30.6671,-87.9365,16.51,1111122 
DISL,ioos:station:DISL:MHPA:1,2009-01-05T10:30:00Z,30.6671,-87.9365,16.35,1111122 
DISL,ioos:station:DISL:MHPA:1,2009-01-05T11:00:00Z,30.6671,-87.9365,16.48,1111122 
DISL,ioos:station:DISL:MHPA:1,2009-01-05T11:30:00Z,30.6671,-87.9365,17.45,1111122 
DISL,ioos:station:DISL:MHPA:1,2009-01-05T12:00:00Z,30.6671,-87.9365,17.47,1111122 
DISL,ioos:station:DISL:MHPA:1,2009-01-05T12:30:00Z,30.6671,-87.9365,17.63,1111122 
DISL,ioos:station:DISL:MHPA:1,2009-01-05T13:00:00Z,30.6671,-87.9365,17.77,1111122 
DISL,ioos:station:DISL:MHPA:1,2009-01-05T13:30:00Z,30.6671,-87.9365,17.89,1111122 
DISL,ioos:station:DISL:MHPA:1,2009-01-05T14:00:00Z,30.6671,-87.9365,18.15,1111122 
DISL,ioos:station:DISL:MHPA:1,2009-01-05T14:30:00Z,30.6671,-87.9365,18.47,1111122 
DISL,ioos:station:DISL:MHPA:1,2009-01-05T15:00:00Z,30.6671,-87.9365,18.95,1111122 
DISL,ioos:station:DISL:MHPA:1,2009-01-05T15:30:00Z,30.6671,-87.9365,19.25,1111122 
DISL,ioos:station:DISL:MHPA:1,2009-01-05T16:00:00Z,30.6671,-87.9365,19.41,1111122 
DISL,ioos:station:DISL:MHPA:1,2009-01-05T16:30:00Z,30.6671,-87.9365,18.48,1111122 
DISL,ioos:station:DISL:MHPA:1,2009-01-05T17:00:00Z,30.6671,-87.9365,17.73,1111122 
DISL,ioos:station:DISL:MHPA:1,2009-01-05T17:30:00Z,30.6671,-87.9365,17.74,1111122 
DISL,ioos:station:DISL:MHPA:1,2009-01-05T18:00:00Z,30.6671,-87.9365,18.63,1111122 
DISL,ioos:station:DISL:MHPA:1,2009-01-05T18:30:00Z,30.6671,-87.9365,19.29,1111122 
DISL,ioos:station:DISL:MHPA:1,2009-01-05T19:00:00Z,30.6671,-87.9365,19.26,1111122 
DISL,ioos:station:DISL:MHPA:1,2009-01-05T19:30:00Z,30.6671,-87.9365,19.25,1111122 
DISL,ioos:station:DISL:MHPA:1,2009-01-05T20:00:00Z,30.6671,-87.9365,19.02,1111122 
DISL,ioos:station:DISL:MHPA:1,2009-01-05T20:30:00Z,30.6671,-87.9365,18.79,1111122 
DISL,ioos:station:DISL:MHPA:1,2009-01-05T21:00:00Z,30.6671,-87.9365,18.87,1111122 
DISL,ioos:station:DISL:MHPA:1,2009-01-05T21:30:00Z,30.6671,-87.9365,18.94,1111122 
DISL,ioos:station:DISL:MHPA:1,2009-01-05T22:00:00Z,30.6671,-87.9365,19.24,1111122 
DISL,ioos:station:DISL:MHPA:1,2009-01-05T22:30:00Z,30.6671,-87.9365,19.32,1111122 
DISL,ioos:station:DISL:MHPA:1,2009-01-05T23:00:00Z,30.6671,-87.9365,19.35,1111122 
DISL,ioos:station:DISL:MHPA:1,2009-01-05T23:30:00Z,30.6671,-87.9365,19.31,1111122 
DISL,ioos:station:DISL:MHPA:1,2009-01-06T00:00:00Z,30.6671,-87.9365,19.53,1111122 
DISL,ioos:station:DISL:MHPA:1,2009-01-06T00:30:00Z,30.6671,-87.9365,19.32,1111122 
DISL,ioos:station:DISL:MHPA:1,2009-01-06T01:00:00Z,30.6671,-87.9365,19.3,1111122 
DISL,ioos:station:DISL:MHPA:1,2009-01-06T01:30:00Z,30.6671,-87.9365,19.06,1111122 
DISL,ioos:station:DISL:MHPA:1,2009-01-06T02:00:00Z,30.6671,-87.9365,18.86,1111122 
DISL,ioos:station:DISL:MHPA:1,2009-01-06T02:30:00Z,30.6671,-87.9365,18.63,1111122 
DISL,ioos:station:DISL:MHPA:1,2009-01-06T03:00:00Z,30.6671,-87.9365,18.59,1111122 
DISL,ioos:station:DISL:MHPA:1,2009-01-06T03:30:00Z,30.6671,-87.9365,18.45,1111122 
DISL,ioos:station:DISL:MHPA:1,2009-01-06T04:00:00Z,30.6671,-87.9365,18.1,1111122 
DISL,ioos:station:DISL:MHPA:1,2009-01-06T04:30:00Z,30.6671,-87.9365,17.79,1111122 
DISL,ioos:station:DISL:MHPA:1,2009-01-06T05:00:00Z,30.6671,-87.9365,17.79,1111122 
DISL,ioos:station:DISL:MHPA:1,2009-01-06T05:30:00Z,30.6671,-87.9365,17.7,1111122 
DISL,ioos:station:DISL:MHPA:1,2009-01-06T06:00:00Z,30.6671,-87.9365,17.45,1111122 
DISL,ioos:station:DISL:MHPA:1,2009-01-06T06:30:00Z,30.6671,-87.9365,17.69,1111122 
DISL,ioos:station:DISL:MHPA:1,2009-01-06T07:00:00Z,30.6671,-87.9365,17.62,1111122 
DISL,ioos:station:DISL:MHPA:1,2009-01-06T07:30:00Z,30.6671,-87.9365,17.49,1111122 
DISL,ioos:station:DISL:MHPA:1,2009-01-06T08:00:00Z,30.6671,-87.9365,17.68,1111122 
DISL,ioos:station:DISL:MHPA:1,2009-01-06T08:30:00Z,30.6671,-87.9365,17.63,1111122 
DISL,ioos:station:DISL:MHPA:1,2009-01-06T09:00:00Z,30.6671,-87.9365,17.31,1111122 
DISL,ioos:station:DISL:MHPA:1,2009-01-06T09:30:00Z,30.6671,-87.9365,17.31,1111122 
DISL,ioos:station:DISL:MHPA:1,2009-01-06T10:00:00Z,30.6671,-87.9365,17.7,1111122 
DISL,ioos:station:DISL:MHPA:1,2009-01-06T10:30:00Z,30.6671,-87.9365,18.09,1111122 
DISL,ioos:station:DISL:MHPA:1,2009-01-06T11:00:00Z,30.6671,-87.9365,17.8,1111122 
DISL,ioos:station:DISL:MHPA:1,2009-01-06T11:30:00Z,30.6671,-87.9365,18.84,1111122 
DISL,ioos:station:DISL:MHPA:1,2009-01-06T12:00:00Z,30.6671,-87.9365,19.28,1111122 
DISL,ioos:station:DISL:MHPA:1,2009-01-06T12:30:00Z,30.6671,-87.9365,19.38,1111122 
DISL,ioos:station:DISL:MHPA:1,2009-01-06T13:00:00Z,30.6671,-87.9365,19.34,1111122 
DISL,ioos:station:DISL:MHPA:1,2009-01-06T13:30:00Z,30.6671,-87.9365,19.13,1111122 
DISL,ioos:station:DISL:MHPA:1,2009-01-06T14:00:00Z,30.6671,-87.9365,19.17,1111122 
DISL,ioos:station:DISL:MHPA:1,2009-01-06T14:30:00Z,30.6671,-87.9365,19.26,1111122 
DISL,ioos:station:DISL:MHPA:1,2009-01-06T15:00:00Z,30.6671,-87.9365,19.59,1111122 
DISL,ioos:station:DISL:MHPA:1,2009-01-06T15:30:00Z,30.6671,-87.9365,19.77,1111122 
DISL,ioos:station:DISL:MHPA:1,2009-01-06T16:00:00Z,30.6671,-87.9365,19.61,1111122 
DISL,ioos:station:DISL:MHPA:1,2009-01-06T16:30:00Z,30.6671,-87.9365,19.52,1111122 
DISL,ioos:station:DISL:MHPA:1,2009-01-06T17:00:00Z,30.6671,-87.9365,20.19,1111122 
DISL,ioos:station:DISL:MHPA:1,2009-01-06T17:30:00Z,30.6671,-87.9365,20.05,1111122 
DISL,ioos:station:DISL:MHPA:1,2009-01-06T18:00:00Z,30.6671,-87.9365,19.52,1111122 
DISL,ioos:station:DISL:MHPA:1,2009-01-06T18:30:00Z,30.6671,-87.9365,19.61,1111122 
DISL,ioos:station:DISL:MHPA:1,2009-01-06T19:00:00Z,30.6671,-87.9365,20.16,1111122 
DISL,ioos:station:DISL:MHPA:1,2009-01-06T19:30:00Z,30.6671,-87.9365,20.1,1111122 
DISL,ioos:station:DISL:MHPA:1,2009-01-06T20:00:00Z,30.6671,-87.9365,20.12,1111122 
DISL,ioos:station:DISL:MHPA:1,2009-01-06T20:30:00Z,30.6671,-87.9365,19.62,1111122 
DISL,ioos:station:DISL:MHPA:1,2009-01-06T21:00:00Z,30.6671,-87.9365,19.4,1111122 
DISL,ioos:station:DISL:MHPA:1,2009-01-06T21:30:00Z,30.6671,-87.9365,19.26,1111122 
DISL,ioos:station:DISL:MHPA:1,2009-01-06T22:00:00Z,30.6671,-87.9365,19.26,1111122 
DISL,ioos:station:DISL:MHPA:1,2009-01-06T22:30:00Z,30.6671,-87.9365,19.33,1111122 
DISL,ioos:station:DISL:MHPA:1,2009-01-06T23:00:00Z,30.6671,-87.9365,19.32,1111122 
DISL,ioos:station:DISL:MHPA:1,2009-01-06T23:30:00Z,30.6671,-87.9365,19.41,1111122 
DISL,ioos:station:DISL:MHPA:1,2009-01-07T00:00:00Z,30.6671,-87.9365,19.47,1111122 
DISL,ioos:station:DISL:MHPA:1,2009-01-07T00:30:00Z,30.6671,-87.9365,19.27,1111122 
DISL,ioos:station:DISL:MHPA:1,2009-01-07T01:00:00Z,30.6671,-87.9365,19.37,1111122 
DISL,ioos:station:DISL:MHPA:1,2009-01-07T01:30:00Z,30.6671,-87.9365,19.16,1111122 
DISL,ioos:station:DISL:MHPA:1,2009-01-07T02:00:00Z,30.6671,-87.9365,19.43,1111122 
DISL,ioos:station:DISL:MHPA:1,2009-01-07T02:30:00Z,30.6671,-87.9365,19.48,1111122 
DISL,ioos:station:DISL:MHPA:1,2009-01-07T03:00:00Z,30.6671,-87.9365,19.43,1111122 
DISL,ioos:station:DISL:MHPA:1,2009-01-07T03:30:00Z,30.6671,-87.9365,17.34,1111122 
DISL,ioos:station:DISL:MHPA:1,2009-01-07T04:00:00Z,30.6671,-87.9365,15.1,1111122 
DISL,ioos:station:DISL:MHPA:1,2009-01-07T04:30:00Z,30.6671,-87.9365,14.71,1111122 
DISL,ioos:station:DISL:MHPA:1,2009-01-07T05:00:00Z,30.6671,-87.9365,14.92,1111122 
DISL,ioos:station:DISL:MHPA:1,2009-01-07T05:30:00Z,30.6671,-87.9365,14.94,1111122 
DISL,ioos:station:DISL:MHPA:1,2009-01-07T06:00:00Z,30.6671,-87.9365,15.05,1111122 